Location: Orange Harbor Mobile Home Park
(26.6923°N, 81.7937°W)
Time: 08:35:48
(UTC+00:00)

Meteor 1-27 Rocket - Pass Details

Date: 19 September 2020
Orbit: 830 x 910 km, 81.3° (Epoch: 29 October)

Event Time Altitude Azimuth Distance (km) Brightness Sun altitude
Rises 10:23:34 0° 208° (SSW) 3,510 6.6 -12.2°
Reaches altitude 10° 10:26:15 10° 217° (SW) 2,578 5.8 -11.6°
Maximum altitude 10:31:32 34° 281° (W) 1,448 4.4 -10.4°
Drops below altitude 10° 10:36:52 10° 345° (NNW) 2,595 6.2 -9.3°
Sets 10:39:35 0° 355° (N) 3,535 7.0 -8.6°
